QPF
0.03 0.03 0.04 0.04 0.05 0.03 0.01 0.01 0.00 0.01 0.01 0.00 0.00 0.00 0.01 0.01 0.01 0.02 0.03 0.03 0.03 0.03 0.03 0.04 0.04 0.03 0.03 0.02 0.02 0.03 0.03 0.04 0.06 0.03 0.03 0.03 0.02 0.01 0.01 0.01 0.01 0.02 0.02
0.03 0.03 0.04 0.05 0.05 0.04 0.02 0.01 0.01 0.01 0.01 0.00 0.00 0.00 0.00 0.01 0.01 0.01 0.02 0.03 0.03 0.03 0.03 0.03 0.04 0.03 0.03 0.03 0.02 0.02 0.02 0.03 0.05 0.04 0.03 0.02 0.02 0.02 0.02 0.01 0.01 0.01 0.01
0.03 0.03 0.03 0.05 0.06 0.04 0.02 0.01 0.01 0.01 0.02 0.01 0.01 0.01 0.01 0.01 0.01 0.01 0.02 0.02 0.02 0.03 0.03 0.03 0.03 0.04 0.04 0.04 0.02 0.02 0.02 0.03 0.04 0.04 0.04 0.03 0.03 0.02 0.02 0.02 0.02 0.02 0.01
0.03 0.03 0.03 0.04 0.06 0.04 0.02 0.02 0.01 0.02 0.01 0.01 0.01 0.01 0.01 0.02 0.01 0.01 0.02 0.02 0.02 0.02 0.03 0.02 0.02 0.03 0.04 0.04 0.03 0.02 0.02 0.03 0.04 0.04 0.04 0.03 0.03 0.03 0.03 0.03 0.02 0.02 0.02
0.04 0.03 0.03 0.04 0.04 0.04 0.03 0.03 0.02 0.02 0.01 0.01 0.01 0.02 0.02 0.02 0.02 0.02 0.02 0.02 0.02 0.02 0.02 0.03 0.02 0.02 0.03 0.03 0.03 0.02 0.02 0.03 0.04 0.04 0.04 0.04 0.04 0.03 0.02 0.03 0.02 0.02 0.02
0.06 0.04 0.03 0.04 0.04 0.05 0.03 0.02 0.03 0.02 0.01 0.01 0.01 0.01 0.02 0.03 0.04 0.04 0.03 0.02 0.03 0.03 0.03 0.03 0.03 0.02 0.02 0.02 0.03 0.02 0.03 0.04 0.05 0.05 0.05 0.04 0.04 0.04 0.03 0.03 0.02 0.02 0.03
0.05 0.06 0.04 0.03 0.05 0.05 0.04 0.02 0.03 0.02 0.01 0.01 0.01 0.02 0.02 0.03 0.04 0.04 0.03 0.03 0.03 0.03 0.04 0.05 0.05 0.03 0.02 0.02 0.02 0.02 0.02 0.03 0.05 0.04 0.04 0.04 0.04 0.04 0.04 0.04 0.03 0.02 0.05
0.05 0.05 0.04 0.04 0.04 0.05 0.04 0.03 0.02 0.02 0.02 0.01 0.01 0.01 0.01 0.02 0.03 0.03 0.03 0.02 0.02 0.03 0.04 0.05 0.07 0.06 0.04 0.03 0.02 0.02 0.02 0.02 0.03 0.03 0.03 0.03 0.04 0.05 0.05 0.05 0.06 0.04 0.06
0.06 0.06 0.06 0.06 0.04 0.04 0.04 0.03 0.04 0.03 0.02 0.01 0.01 0.01 0.01 0.01 0.02 0.02 0.02 0.02 0.03 0.03 0.04 0.04 0.06 0.06 0.05 0.04 0.03 0.03 0.02 0.02 0.04 0.04 0.03 0.03 0.04 0.05 0.06 0.06 0.07 0.06 0.05
0.06 0.07 0.07 0.06 0.05 0.04 0.04 0.03 0.04 0.03 0.03 0.02 0.02 0.02 0.01 0.02 0.02 0.02 0.02 0.02 0.02 0.03 0.04 0.06 0.07 0.07 0.06 0.04 0.02 0.02 0.02 0.03 0.04 0.05 0.05 0.04 0.03 0.04 0.05 0.06 0.07 0.06 0.05
0.05 0.06 0.06 0.06 0.06 0.06 0.05 0.04 0.04 0.04 0.04 0.03 0.02 0.02 0.02 0.02 0.03 0.02 0.02 0.02 0.02 0.03 0.04 0.05 0.06 0.07 0.06 0.05 0.04 0.03 0.03 0.04 0.03 0.04 0.05 0.04 0.03 0.03 0.04 0.04 0.05 0.06 0.07
0.04 0.05 0.05 0.05 0.06 0.05 0.04 0.04 0.05 0.05 0.05 0.05 0.04 0.03 0.03 0.02 0.03 0.03 0.03 0.03 0.03 0.02 0.03 0.04 0.04 0.04 0.04 0.05 0.04 0.04 0.05 0.05 0.04 0.05 0.06 0.05 0.04 0.02 0.02 0.03 0.04 0.04 0.05
0.03 0.02 0.03 0.03 0.04 0.04 0.04 0.04 0.05 0.06 0.05 0.05 0.05 0.04 0.03 0.03 0.04 0.05 0.04 0.04 0.04 0.03 0.03 0.04 0.05 0.05 0.05 0.05 0.05 0.05 0.05 0.06 0.06 0.05 0.05 0.04 0.04 0.03 0.02 0.01 0.02 0.02 0.03
0.03 0.02 0.02 0.02 0.03 0.03 0.04 0.04 0.05 0.05 0.06 0.06 0.06 0.05 0.05 0.05 0.05 0.05 0.05 0.05 0.04 0.04 0.04 0.04 0.04 0.05 0.05 0.07 0.07 0.06 0.05 0.06 0.07 0.06 0.05 0.04 0.03 0.03 0.03 0.02 0.02 0.02 0.02
0.02 0.02 0.02 0.02 0.02 0.03 0.05 0.06 0.05 0.06 0.07 0.07 0.08 0.07 0.07 0.06 0.05 0.05 0.04 0.03 0.03 0.03 0.03 0.04 0.05 0.06 0.06 0.06 0.07 0.06 0.06 0.07 0.07 0.06 0.06 0.05 0.04 0.03 0.03 0.03 0.02 0.03 0.02
0.02 0.01 0.01 0.02 0.02 0.02 0.03 0.05 0.06 0.07 0.06 0.05 0.05 0.06 0.06 0.05 0.05 0.04 0.03 0.02 0.02 0.03 0.04 0.05 0.05 0.06 0.07 0.07 0.08 0.09 0.09 0.09 0.08 0.07 0.07 0.07 0.06 0.04 0.03 0.03 0.03 0.03 0.03
0.03 0.02 0.01 0.01 0.02 0.02 0.02 0.02 0.03 0.05 0.06 0.05 0.04 0.04 0.04 0.04 0.04 0.04 0.03 0.02 0.02 0.02 0.03 0.05 0.07 0.07 0.07 0.07 0.08 0.09 0.09 0.10 0.10 0.09 0.08 0.07 0.05 0.04 0.03 0.03 0.03 0.03 0.03
0.05 0.03 0.02 0.02 0.02 0.03 0.03 0.03 0.03 0.04 0.05 0.04 0.04 0.04 0.04 0.05 0.04 0.04 0.04 0.03 0.03 0.03 0.04 0.05 0.07 0.08 0.08 0.08 0.09 0.09 0.09 0.09 0.10 0.10 0.08 0.07 0.05 0.04 0.03 0.03 0.03 0.03 0.03
0.05 0.04 0.03 0.03 0.03 0.03 0.04 0.04 0.04 0.04 0.05 0.04 0.04 0.04 0.05 0.05 0.06 0.06 0.05 0.05 0.04 0.03 0.04 0.05 0.06 0.07 0.08 0.07 0.07 0.07 0.07 0.07 0.08 0.09 0.09 0.08 0.07 0.06 0.04 0.03 0.03 0.03 0.04
0.03 0.04 0.03 0.03 0.03 0.03 0.03 0.03 0.03 0.03 0.03 0.03 0.03 0.04 0.05 0.06 0.06 0.06 0.06 0.06 0.06 0.05 0.04 0.04 0.05 0.06 0.07 0.08 0.07 0.07 0.07 0.07 0.07 0.07 0.08 0.08 0.08 0.07 0.05 0.03 0.03 0.03 0.04
0.02 0.02 0.03 0.02 0.02 0.02 0.02 0.03 0.03 0.03 0.03 0.03 0.03 0.04 0.05 0.05 0.06 0.06 0.06 0.05 0.05 0.05 0.05 0.04 0.03 0.03 0.04 0.05 0.06 0.05 0.05 0.05 0.05 0.05 0.06 0.06 0.06 0.06 0.04 0.03 0.02 0.02 0.03
0.01 0.01 0.02 0.02 0.01 0.01 0.02 0.02 0.02 0.02 0.03 0.03 0.03 0.04 0.04 0.05 0.05 0.06 0.05 0.05 0.04 0.03 0.03 0.03 0.03 0.03 0.03 0.03 0.04 0.04 0.04 0.04 0.04 0.04 0.04 0.05 0.05 0.05 0.04 0.03 0.03 0.03 0.03
0.01 0.01 0.02 0.02 0.02 0.01 0.01 0.01 0.01 0.02 0.02 0.03 0.03 0.03 0.03 0.03 0.04 0.04 0.05 0.04 0.03 0.03 0.02 0.02 0.02 0.02 0.03 0.03 0.03 0.04 0.04 0.04 0.03 0.03 0.03 0.04 0.04 0.04 0.04 0.03 0.03 0.03 0.03
0.00 0.01 0.01 0.02 0.03 0.02 0.02 0.02 0.02 0.02 0.02 0.02 0.02 0.02 0.02 0.02 0.03 0.03 0.03 0.03 0.03 0.02 0.02 0.01 0.01 0.02 0.02 0.03 0.03 0.04 0.04 0.04 0.03 0.02 0.02 0.03 0.03 0.03 0.03 0.03 0.03 0.03 0.03
0.01 0.01 0.01 0.01 0.02 0.02 0.02 0.02 0.02 0.02 0.02 0.02 0.02 0.02 0.02 0.01 0.01 0.02 0.02 0.02 0.02 0.02 0.02 0.01 0.01 0.02 0.02 0.03 0.03 0.04 0.04 0.04 0.04 0.02 0.02 0.02 0.03 0.03 0.03 0.03 0.03 0.03 0.03
0.01 0.01 0.01 0.01 0.02 0.02 0.03 0.03 0.03 0.03 0.03 0.03 0.03 0.02 0.02 0.02 0.01 0.01 0.01 0.01 0.01 0.01 0.01 0.01 0.01 0.01 0.02 0.03 0.03 0.03 0.04 0.04 0.04 0.02 0.02 0.02 0.02 0.03 0.03 0.03 0.03 0.03 0.02
MSLP
1020.69 1021.20 1021.75 1022.32 1022.86 1023.34 1023.76 1024.11 1024.40 1024.65 1024.86 1025.06 1025.23 1025.39 1025.53 1025.66 1025.78 1025.91 1026.06 1026.23 1026.44 1026.68 1026.94 1027.18 1027.39 1027.52 1027.56 1027.49 1027.33 1027.09 1026.81 1026.49 1026.18 1025.87 1025.57 1025.25 1024.90 1024.49 1024.01 1023.44 1022.81 1022.13 1021.44
1020.51 1021.02 1021.57 1022.13 1022.66 1023.16 1023.60 1023.99 1024.33 1024.62 1024.89 1025.13 1025.35 1025.54 1025.71 1025.87 1026.02 1026.18 1026.35 1026.55 1026.78 1027.04 1027.31 1027.58 1027.80 1027.97 1028.05 1028.05 1027.96 1027.81 1027.61 1027.38 1027.14 1026.88 1026.61 1026.31 1025.94 1025.50 1024.98 1024.38 1023.71 1023.02 1022.34
1020.27 1020.79 1021.34 1021.88 1022.41 1022.91 1023.37 1023.79 1024.17 1024.53 1024.85 1025.16 1025.44 1025.69 1025.92 1026.12 1026.30 1026.48 1026.67 1026.89 1027.13 1027.39 1027.66 1027.93 1028.17 1028.36 1028.48 1028.54 1028.53 1028.46 1028.35 1028.20 1028.04 1027.85 1027.61 1027.32 1026.96 1026.50 1025.96 1025.33 1024.64 1023.94 1023.25
1019.94 1020.49 1021.05 1021.59 1022.12 1022.62 1023.09 1023.55 1023.98 1024.40 1024.80 1025.18 1025.54 1025.86 1026.15 1026.40 1026.63 1026.83 1027.04 1027.25 1027.48 1027.73 1027.99 1028.25 1028.49 1028.69 1028.84 1028.94 1028.99 1028.99 1028.96 1028.90 1028.80 1028.67 1028.48 1028.22 1027.87 1027.42 1026.87 1026.24 1025.55 1024.84 1024.17
1019.50 1020.11 1020.70 1021.26 1021.79 1022.31 1022.80 1023.30 1023.79 1024.27 1024.76 1025.22 1025.66 1026.06 1026.41 1026.71 1026.98 1027.21 1027.42 1027.63 1027.84 1028.07 1028.31 1028.54 1028.77 1028.97 1029.14 1029.27 1029.35 1029.41 1029.43 1029.43 1029.39 1029.31 1029.17 1028.94 1028.63 1028.20 1027.68 1027.07 1026.41 1025.73 1025.07
1018.97 1019.66 1020.29 1020.89 1021.45 1021.99 1022.53 1023.07 1023.62 1024.17 1024.73 1025.27 1025.79 1026.26 1026.67 1027.02 1027.31 1027.55 1027.77 1027.97 1028.17 1028.38 1028.59 1028.81 1029.02 1029.21 1029.38 1029.52 1029.64 1029.72 1029.78 1029.80 1029.80 1029.76 1029.66 1029.47 1029.20 1028.83 1028.37 1027.82 1027.21 1026.58 1025.95
1018.37 1019.14 1019.85 1020.50 1021.11 1021.69 1022.27 1022.86 1023.47 1024.09 1024.71 1025.32 1025.90 1026.42 1026.87 1027.26 1027.57 1027.83 1028.05 1028.25 1028.44 1028.63 1028.83 1029.04 1029.24 1029.43 1029.60 1029.75 1029.87 1029.96 1030.02 1030.07 1030.08 1030.06 1029.98 1029.84 1029.63 1029.33 1028.94 1028.47 1027.94 1027.38 1026.82
1017.74 1018.60 1019.38 1020.10 1020.76 1021.40 1022.03 1022.66 1023.32 1023.99 1024.66 1025.32 1025.94 1026.50 1026.98 1027.39 1027.72 1028.00 1028.23 1028.43 1028.62 1028.82 1029.03 1029.24 1029.45 1029.65 1029.83 1029.97 1030.08 1030.17 1030.23 1030.26 1030.27 1030.26 1030.20 1030.10 1029.94 1029.71 1029.41 1029.04 1028.61 1028.14 1027.64
1017.11 1018.04 1018.90 1019.68 1020.40 1021.09 1021.76 1022.44 1023.14 1023.84 1024.55 1025.23 1025.87 1026.45 1026.96 1027.38 1027.73 1028.03 1028.27 1028.50 1028.72 1028.95 1029.19 1029.43 1029.66 1029.88 1030.06 1030.21 1030.32 1030.39 1030.43 1030.45 1030.44 1030.41 1030.37 1030.30 1030.18 1030.02 1029.81 1029.53 1029.20 1028.82 1028.39
1016.50 1017.49 1018.40 1019.23 1020.01 1020.74 1021.45 1022.17 1022.89 1023.62 1024.34 1025.03 1025.69 1026.27 1026.79 1027.23 1027.61 1027.93 1028.21 1028.48 1028.75 1029.02 1029.30 1029.59 1029.86 1030.11 1030.32 1030.47 1030.58 1030.64 1030.65 1030.64 1030.61 1030.57 1030.52 1030.46 1030.38 1030.27 1030.12 1029.93 1029.68 1029.39 1029.03
1015.93 1016.94 1017.89 1018.76 1019.57 1020.34 1021.08 1021.82 1022.56 1023.29 1024.02 1024.72 1025.38 1025.97 1026.50 1026.96 1027.37 1027.73 1028.06 1028.38 1028.71 1029.04 1029.38 1029.72 1030.04 1030.32 1030.56 1030.73 1030.83 1030.88 1030.87 1030.83 1030.78 1030.71 1030.65 1030.59 1030.53 1030.45 1030.36 1030.23 1030.05 1029.81 1029.52
1015.37 1016.39 1017.35 1018.24 1019.08 1019.87 1020.64 1021.39 1022.14 1022.88 1023.61 1024.31 1024.97 1025.57 1026.12 1026.61 1027.06 1027.46 1027.85 1028.23 1028.62 1029.01 1029.41 1029.80 1030.16 1030.48 1030.73 1030.92 1031.02 1031.06 1031.04 1030.98 1030.90 1030.82 1030.74 1030.67 1030.62 1030.56 1030.50 1030.40 1030.27 1030.09 1029.84
1014.81 1015.82 1016.78 1017.68 1018.54 1019.35 1020.13 1020.90 1021.65 1022.40 1023.13 1023.83 1024.50 1025.12 1025.69 1026.22 1026.71 1027.16 1027.61 1028.04 1028.48 1028.93 1029.37 1029.79 1030.18 1030.52 1030.79 1030.98 1031.09 1031.13 1031.10 1031.04 1030.95 1030.85 1030.76 1030.69 1030.64 1030.59 1030.54 1030.46 1030.36 1030.21 1030.00
1014.22 1015.21 1016.17 1017.09 1017.95 1018.78 1019.58 1020.36 1021.12 1021.87 1022.60 1023.31 1023.99 1024.64 1025.24 1025.81 1026.34 1026.84 1027.34 1027.82 1028.30 1028.77 1029.23 1029.67 1030.07 1030.41 1030.68 1030.87 1030.98 1031.02 1031.00 1030.95 1030.86 1030.78 1030.70 1030.63 1030.58 1030.53 1030.49 1030.43 1030.34 1030.21 1030.04
1013.58 1014.56 1015.52 1016.45 1017.33 1018.17 1018.99 1019.78 1020.55 1021.31 1022.05 1022.77 1023.47 1024.14 1024.77 1025.38 1025.95 1026.50 1027.03 1027.54 1028.04 1028.52 1028.98 1029.40 1029.78 1030.10 1030.36 1030.54 1030.66 1030.72 1030.72 1030.69 1030.64 1030.59 1030.53 1030.49 1030.45 1030.42 1030.39 1030.34 1030.26 1030.15 1030.01
1012.87 1013.85 1014.82 1015.76 1016.67 1017.53 1018.36 1019.16 1019.95 1020.71 1021.46 1022.19 1022.91 1023.60 1024.27 1024.91 1025.52 1026.10 1026.65 1027.18 1027.67 1028.14 1028.57 1028.96 1029.31 1029.60 1029.84 1030.02 1030.15 1030.23 1030.27 1030.29 1030.29 1030.29 1030.29 1030.29 1030.29 1030.28 1030.27 1030.23 1030.17 1030.08 1029.96
1012.09 1013.07 1014.06 1015.02 1015.95 1016.84 1017.68 1018.50 1019.29 1020.06 1020.81 1021.56 1022.29 1023.00 1023.69 1024.36 1025.00 1025.60 1026.17 1026.70 1027.18 1027.62 1028.02 1028.37 1028.67 1028.94 1029.16 1029.34 1029.48 1029.60 1029.70 1029.79 1029.87 1029.94 1030.01 1030.07 1030.12 1030.15 1030.17 1030.15 1030.11 1030.03 1029.93
1011.23 1012.23 1013.23 1014.22 1015.17 1016.07 1016.93 1017.76 1018.55 1019.32 1020.08 1020.82 1021.56 1022.29 1023.01 1023.70 1024.36 1024.98 1025.56 1026.08 1026.55 1026.97 1027.34 1027.65 1027.93 1028.17 1028.37 1028.56 1028.74 1028.91 1029.07 1029.24 1029.40 1029.56 1029.72 1029.85 1029.96 1030.04 1030.09 1030.10 1030.08 1030.02 1029.93
1010.29 1011.30 1012.32 1013.32 1014.29 1015.21 1016.08 1016.91 1017.70 1018.47 1019.22 1019.96 1020.71 1021.45 1022.18 1022.89 1023.57 1024.21 1024.80 1025.34 1025.80 1026.21 1026.56 1026.86 1027.12 1027.35 1027.56 1027.77 1027.99 1028.21 1028.45 1028.70 1028.95 1029.20 1029.43 1029.64 1029.82 1029.95 1030.03 1030.06 1030.05 1030.00 1029.92
1009.28 1010.29 1011.32 1012.34 1013.31 1014.24 1015.11 1015.94 1016.73 1017.48 1018.23 1018.97 1019.71 1020.46 1021.20 1021.93 1022.64 1023.31 1023.92 1024.47 1024.95 1025.37 1025.72 1026.03 1026.29 1026.53 1026.77 1027.01 1027.27 1027.56 1027.87 1028.19 1028.53 1028.86 1029.16 1029.43 1029.66 1029.83 1029.94 1029.99 1029.99 1029.95 1029.87
1008.23 1009.23 1010.25 1011.27 1012.25 1013.17 1014.05 1014.87 1015.64 1016.39 1017.13 1017.86 1018.61 1019.36 1020.11 1020.87 1021.60 1022.29 1022.94 1023.52 1024.04 1024.48 1024.87 1025.20 1025.49 1025.76 1026.04 1026.32 1026.64 1026.98 1027.35 1027.73 1028.13 1028.52 1028.88 1029.20 1029.46 1029.65 1029.78 1029.85 1029.85 1029.80 1029.71
1007.16 1008.14 1009.14 1010.15 1011.12 1012.04 1012.91 1013.73 1014.50 1015.24 1015.97 1016.70 1017.44 1018.20 1018.97 1019.74 1020.50 1021.23 1021.91 1022.54 1023.10 1023.59 1024.02 1024.39 1024.73 1025.05 1025.37 1025.70 1026.06 1026.45 1026.87 1027.30 1027.73 1028.16 1028.55 1028.89 1029.17 1029.38 1029.52 1029.58 1029.58 1029.53 1029.43
1006.11 1007.05 1008.04 1009.03 1009.99 1010.91 1011.78 1012.59 1013.36 1014.10 1014.82 1015.55 1016.30 1017.06 1017.84 1018.63 1019.41 1020.17 1020.90 1021.57 1022.18 1022.72 1023.20 1023.63 1024.02 1024.39 1024.76 1025.14 1025.54 1025.96 1026.40 1026.86 1027.31 1027.75 1028.15 1028.49 1028.77 1028.98 1029.11 1029.18 1029.18 1029.12 1029.02
1005.13 1006.04 1007.00 1007.97 1008.93 1009.85 1010.72 1011.53 1012.30 1013.05 1013.77 1014.50 1015.25 1016.01 1016.80 1017.59 1018.39 1019.18 1019.93 1020.64 1021.29 1021.88 1022.42 1022.90 1023.35 1023.77 1024.18 1024.60 1025.03 1025.47 1025.93 1026.39 1026.84 1027.27 1027.66 1027.99 1028.26 1028.46 1028.59 1028.64 1028.64 1028.59 1028.48
1004.25 1005.13 1006.08 1007.04 1008.00 1008.92 1009.79 1010.62 1011.40 1012.14 1012.87 1013.60 1014.35 1015.11 1015.89 1016.69 1017.49 1018.28 1019.06 1019.79 1020.47 1021.10 1021.67 1022.20 1022.69 1023.16 1023.61 1024.06 1024.51 1024.96 1025.42 1025.88 1026.31 1026.72 1027.09 1027.40 1027.65 1027.84 1027.95 1028.01 1028.01 1027.95 1027.86
1003.51 1004.38 1005.31 1006.27 1007.23 1008.16 1009.04 1009.88 1010.67 1011.42 1012.16 1012.89 1013.62 1014.37 1015.14 1015.93 1016.72 1017.51 1018.28 1019.02 1019.71 1020.37 1020.97 1021.53 1022.06 1022.56 1023.04 1023.51 1023.97 1024.43 1024.88 1025.32 1025.74 1026.13 1026.47 1026.75 1026.98 1027.14 1027.25 1027.30 1027.29 1027.25 1027.17
Thickness
5652 5651 5649 5648 5647 5646 5645 5644 5643 5642 5641 5639 5638 5637 5635 5634 5633 5632 5631 5631 5630 5630 5631 5631 5631 5632 5631 5632 5632 5631 5630 5628 5624 5625 5627 5627 5627 5627 5627 5627 5628 5628 5628
5644 5643 5641 5640 5638 5637 5637 5637 5635 5633 5632 5631 5629 5627 5626 5625 5623 5622 5621 5621 5621 5620 5621 5621 5621 5623 5623 5623 5623 5622 5622 5622 5619 5616 5617 5618 5618 5619 5619 5619 5620 5620 5621
5636 5635 5633 5632 5631 5630 5629 5628 5627 5625 5623 5622 5620 5618 5616 5615 5613 5613 5612 5612 5612 5612 5612 5612 5612 5612 5613 5613 5613 5613 5613 5614 5613 5610 5609 5610 5610 5611 5610 5611 5612 5612 5614
5628 5627 5625 5624 5622 5622 5621 5619 5618 5616 5614 5612 5610 5608 5606 5605 5604 5603 5603 5603 5603 5603 5603 5603 5604 5603 5603 5604 5604 5604 5604 5603 5603 5602 5601 5601 5601 5602 5602 5601 5602 5603 5605
5619 5618 5617 5616 5614 5613 5612 5610 5609 5607 5606 5604 5601 5599 5597 5596 5594 5593 5593 5593 5593 5593 5594 5594 5595 5595 5595 5595 5596 5595 5595 5594 5593 5592 5592 5592 5591 5592 5592 5593 5593 5594 5596
5611 5610 5609 5607 5605 5603 5602 5601 5599 5598 5596 5595 5592 5590 5588 5587 5586 5585 5584 5584 5584 5584 5584 5584 5585 5586 5586 5587 5587 5587 5587 5586 5584 5583 5583 5583 5583 5584 5584 5584 5584 5584 5585
5603 5602 5601 5599 5597 5594 5595 5593 5590 5589 5587 5585 5583 5581 5579 5578 5578 5577 5576 5575 5575 5574 5574 5575 5576 5577 5576 5576 5577 5579 5579 5579 5578 5577 5575 5576 5576 5578 5577 5576 5576 5575 5576
5594 5592 5591 5589 5587 5586 5585 5583 5581 5580 5578 5576 5574 5572 5570 5569 5569 5569 5568 5567 5566 5566 5565 5565 5565 5565 5567 5567 5568 5568 5570 5570 5571 5571 5571 5571 5572 5572 5572 5571 5570 5570 5570
5584 5582 5581 5580 5578 5577 5576 5574 5573 5571 5569 5567 5565 5564 5561 5560 5560 5560 5559 5558 5556 5556 5556 5556 5556 5556 5558 5559 5559 5559 5560 5562 5563 5564 5565 5565 5565 5566 5565 5563 5562 5561 5560
5575 5574 5574 5572 5570 5569 5567 5566 5564 5562 5559 5558 5556 5555 5553 5551 5551 5551 5550 5548 5547 5546 5545 5545 5546 5547 5548 5549 5549 5550 5551 5552 5554 5555 5556 5556 5557 5557 5557 5557 5555 5553 5552
5567 5566 5566 5565 5563 5561 5559 5557 5555 5553 5550 5548 5546 5545 5544 5543 5542 5541 5540 5538 5537 5537 5536 5535 5535 5537 5538 5539 5540 5540 5543 5545 5546 5546 5547 5548 5548 5548 5549 5549 5548 5547 5545
5559 5558 5557 5556 5555 5554 5551 5549 5546 5543 5541 5538 5537 5535 5534 5533 5532 5531 5531 5530 5530 5528 5527 5526 5526 5527 5528 5529 5530 5532 5535 5537 5537 5537 5538 5538 5538 5539 5540 5540 5540 5540 5540
5551 5549 5548 5548 5546 5545 5543 5540 5537 5534 5531 5530 5528 5526 5525 5524 5523 5523 5522 5521 5520 5519 5518 5518 5517 5518 5518 5519 5520 5523 5525 5526 5527 5528 5528 5529 5531 5531 5531 5531 5531 5531 5532
5542 5541 5540 5539 5537 5536 5534 5532 5528 5525 5522 5520 5518 5516 5515 5514 5514 5513 5512 5511 5510 5510 5509 5509 5509 5508 5507 5509 5510 5512 5514 5516 5517 5518 5520 5521 5523 5522 5522 5522 5522 5521 5521
5533 5532 5531 5529 5528 5526 5524 5522 5519 5516 5514 5511 5508 5506 5505 5504 5505 5505 5504 5504 5502 5501 5500 5499 5498 5497 5497 5498 5500 5502 5504 5506 5508 5509 5510 5512 5513 5513 5513 5514 5513 5513 5512
5524 5523 5522 5520 5518 5516 5514 5511 5510 5507 5505 5502 5500 5498 5497 5496 5497 5496 5495 5495 5495 5494 5492 5490 5488 5488 5488 5489 5490 5492 5494 5496 5498 5500 5502 5503 5503 5504 5504 5505 5504 5504 5503
5515 5514 5513 5511 5509 5507 5505 5502 5498 5497 5495 5493 5492 5490 5489 5488 5487 5487 5486 5486 5485 5485 5482 5480 5479 5479 5479 5480 5481 5482 5484 5486 5489 5491 5493 5493 5494 5495 5495 5495 5495 5495 5495
5506 5505 5504 5502 5500 5498 5496 5493 5490 5488 5485 5483 5482 5481 5480 5479 5478 5477 5476 5475 5474 5473 5472 5471 5470 5470 5470 5471 5472 5473 5475 5477 5479 5481 5483 5484 5484 5485 5486 5486 5486 5487 5487
5498 5496 5494 5493 5491 5489 5487 5485 5483 5481 5477 5474 5472 5471 5470 5469 5468 5467 5466 5465 5463 5462 5461 5460 5460 5460 5460 5461 5462 5464 5466 5468 5470 5471 5472 5474 5475 5475 5476 5477 5478 5479 5479
5489 5488 5486 5484 5482 5481 5479 5477 5475 5472 5470 5467 5464 5462 5460 5459 5458 5456 5455 5454 5454 5453 5452 5451 5451 5451 5451 5451 5453 5455 5457 5459 5460 5461 5463 5464 5466 5467 5467 5468 5469 5470 5470
5481 5479 5478 5475 5474 5472 5470 5469 5467 5465 5462 5459 5457 5454 5453 5451 5448 5447 5445 5444 5443 5443 5443 5442 5442 5442 5442 5442 5444 5445 5447 5449 5450 5451 5453 5455 5456 5458 5459 5459 5460 5461 5462
5474 5471 5469 5467 5465 5463 5461 5460 5458 5456 5454 5451 5448 5447 5445 5442 5440 5438 5436 5435 5434 5433 5433 5433 5433 5433 5433 5433 5434 5436 5437 5438 5440 5442 5443 5445 5447 5448 5449 5451 5451 5452 5453
5466 5464 5461 5459 5457 5455 5453 5452 5451 5449 5446 5443 5441 5439 5436 5434 5432 5430 5428 5427 5426 5425 5424 5424 5424 5424 5424 5425 5425 5426 5428 5429 5430 5432 5434 5435 5437 5438 5440 5442 5443 5444 5444
5458 5456 5453 5451 5449 5446 5445 5443 5442 5440 5438 5436 5434 5431 5428 5426 5424 5421 5420 5418 5417 5416 5415 5415 5415 5415 5416 5416 5417 5418 5419 5420 5421 5423 5425 5426 5428 5429 5430 5432 5433 5435 5436
5450 5448 5445 5443 5441 5438 5436 5434 5433 5431 5429 5427 5425 5423 5420 5418 5415 5413 5411 5410 5409 5407 5406 5406 5406 5407 5407 5407 5408 5409 5410 5412 5413 5415 5416 5418 5419 5420 5421 5422 5423 5425 5426
5442 5439 5437 5434 5432 5430 5428 5426 5424 5422 5420 5418 5416 5414 5412 5409 5407 5405 5403 5402 5400 5399 5398 5398 5398 5398 5398 5399 5400 5401 5402 5404 5405 5406 5408 5409 5410 5411 5412 5413 5414 5415 5416